Location: Powder Track
(41.8531°N, 72.3584°W)
Time: 09:25:08
(UTC+00:00)

Transit 4A - Pass Details

Date: 11 August 2021
Orbit: 871 x 974 km, 66.8° (Epoch: 20 September)

Event Time Altitude Azimuth Distance (km) Brightness Sun altitude
Rises 08:54:56 0° 339° (NNW) 3,474 11.0 -10.6°
Reaches altitude 10° 08:59:18 10° 10° (N) 2,545 10.8 -9.9°
Maximum altitude 09:01:31 12° 33° (NNE) 2,403 11.1 -9.6°
Drops below altitude 10° 09:03:46 10° 55° (NE) 2,561 11.9 -9.2°
Sets 09:08:10 0° 85° (E) 3,522 12.3 -8.5°
